Weather History for Palacios, TX

Change the Weather History Date:

Saturday, December 1, 2012

  Actual Average Record
Temperature  
Mean Temperature 73 °F -  
Max Temperature 80 °F 68 °F 80 °F (1945)
Min Temperature 66 °F 47 °F 29 °F (1979)
Cooling Degree Days 8    
Growing Degree Days 23 (Base 50)    
Moisture  
Dew Point 66 °F    
Average Humidity 79    
Maximum Humidity 93    
Minimum Humidity 61    
Precipitation  
Precipitation 0.00 in - - ()
Sea Level Pressure  
Sea Level Pressure 30.11 in    
Wind  
Wind Speed 9 mph (SSE)    
Max Wind Speed 17 mph    
Max Gust Speed 25 mph    
Visibility 10 miles    
Events      
Averages and records for this station are not official NWS values.
T = Trace of Precipitation, MM = Missing Value Source: NWS Daily Summary

Daily Weather History Graph

Daily Weather History Graph

Search for Another Location

Airport:

Trip Planner

Search our weather history database for the weather conditions in past years. The results will help you decide how hot, cold, wet, or windy it might be!

Date:

Astronomy

Dec. 01, 2012 Rise Set
Actual Time 7:00 AM CST 5:27 PM CST
Civil Twilight 6:35 AM CST 5:53 PM CST
Nautical Twilight 6:06 AM CST 6:22 PM CST
Astronomical Twilight 5:37 AM CST 6:50 PM CST
Moon 8:14 PM CST (12/1) 9:17 AM CST (12/1)
Length of Visible Light 11h 17m
Length of Day
10h 26m
Waning Gibbous, 91% of the Moon is Illuminated
Dec 1
Waning Gibbous
Dec 6
Last Quarter
Dec 13
New
Dec 19
First Quarter
Dec 28
Full

Hourly Weather History & Observations

Time (CST) Temp. Heat Index Dew Point Humidity Pressure Visibility Wind Dir Wind Speed Gust Speed Precip Events Conditions
12:53 AM 70.0 °F - 66.0 °F 87% 30.11 in 10.0 mi SSE 6.9 mph - N/A   Overcast
1:53 AM 70.0 °F - 66.0 °F 87% 30.11 in 10.0 mi SE 6.9 mph - N/A   Scattered Clouds
2:53 AM 69.8 °F - 66.2 °F 88% 30.11 in 10.0 mi SSE 5.8 mph - N/A   Mostly Cloudy
3:53 AM 71.6 °F - 66.2 °F 83% 30.10 in 10.0 mi South 6.9 mph - N/A   Mostly Cloudy
4:53 AM 69.8 °F - 66.2 °F 88% 30.10 in 10.0 mi SSE 8.1 mph - N/A   Partly Cloudy
5:53 AM 69.1 °F - 64.9 °F 87% 30.10 in 9.0 mi SSE 8.1 mph - N/A   Partly Cloudy
6:53 AM 66.9 °F - 64.9 °F 93% 30.12 in 9.0 mi SE 5.8 mph - N/A   Partly Cloudy
7:53 AM 71.1 °F - 66.9 °F 87% 30.13 in 9.0 mi SE 5.8 mph - N/A   Mostly Cloudy
8:53 AM 75.2 °F - 68.0 °F 78% 30.14 in 10.0 mi SSE 10.4 mph - N/A   Partly Cloudy
9:53 AM 78.1 °F - 66.9 °F 68% 30.16 in 10.0 mi South 12.7 mph - N/A   Partly Cloudy
10:53 AM 78.1 °F - 66.9 °F 68% 30.16 in 10.0 mi SSE 12.7 mph - N/A   Scattered Clouds
11:53 AM 78.8 °F - 66.2 °F 65% 30.14 in 10.0 mi South 10.4 mph - N/A   Mostly Cloudy
12:53 PM 80.1 °F 82.3 °F 66.9 °F 64% 30.11 in 10.0 mi South 13.8 mph - N/A   Overcast
1:41 PM 80.6 °F 82.7 °F 66.2 °F 61% 30.09 in 10.0 mi South 12.7 mph - N/A   Overcast
1:53 PM 79.0 °F - 66.9 °F 66% 30.09 in 10.0 mi South 17.3 mph - N/A   Mostly Cloudy
2:53 PM 79.0 °F - 66.9 °F 66% 30.08 in 10.0 mi South 16.1 mph 20.7 mph N/A   Clear
3:53 PM 79.0 °F - 66.9 °F 66% 30.08 in 10.0 mi South 12.7 mph - N/A   Clear
4:53 PM 75.2 °F - 66.2 °F 73% 30.08 in 10.0 mi SSE 9.2 mph - N/A   Clear
5:53 PM 73.0 °F - 66.9 °F 81% 30.08 in 10.0 mi SSE 9.2 mph - N/A   Clear
6:53 PM 72.0 °F - 66.9 °F 84% 30.09 in 10.0 mi SSE 8.1 mph - N/A   Clear
7:53 PM 72.0 °F - 66.9 °F 84% 30.10 in 10.0 mi SSE 9.2 mph - N/A   Clear
8:53 PM 72.0 °F - 66.9 °F 84% 30.10 in 10.0 mi SSE 9.2 mph - N/A   Clear
9:53 PM 71.1 °F - 66.9 °F 87% 30.11 in 10.0 mi SSE 6.9 mph - N/A   Clear
10:53 PM 71.1 °F - 66.0 °F 84% 30.11 in 10.0 mi SSE 8.1 mph 25.3 mph N/A   Clear
11:53 PM 71.1 °F - 66.0 °F 84% 30.11 in 10.0 mi SSE 8.1 mph - N/A   Clear